Regional Weather Roundup
Issued by NWS

Home | Current Version | Previous Version | Text Only | Print | Product List | Glossary On
Versions: 1 2 3 4 5 6 7 8 9 10 11 12 13 14 15 16 17 18 19 20 21 22 23 24 25 26 27
000
ASUS42 KTBW 290617
RWRFL
FLORIDA REGIONAL WEATHER ROUNDUP
NATIONAL WEATHER SERVICE TAMPA BAY RUSKIN FL
200 AM EDT THU JUN 29 2017

NOTE: "FAIR" INDICATES FEW OR NO CLOUDS BELOW 12,000 FEET WITH NO
SIGNIFICANT WEATHER AND/OR OBSTRUCTIONS TO VISIBILITY.

FLZ001>010-012>015-112-114-115-290700-
PANHANDLE FLORIDA

CITY           SKY/WX    TMP DP  RH WIND       PRES   REMARKS
PENSACOLA      CLOUDY    78  75  90 E5        30.03F
PENSACOLA NAS  CLOUDY    80  74  81 SE12      30.02F
MILTON NAS     CLOUDY    73  72  96 E6        30.05
CRESTVIEW      PTCLDY    73  71  93 CALM      30.07F
DUKE FIELD     FAIR      74  72  95 E3        30.05F
VALPARAISO     MOCLDY    76  74  93 E3        30.05F
MARY ESTHER    LGT RAIN  77  76  95 E5        30.03F
PANAMA CITY    FAIR      75  72  90 NE5       30.05F
TYNDALL AFB    PTCLDY    75  73  94 E3        30.05F
APALACHICOLA   CLOUDY    77  77 100 NW5       30.05F

STATION/POSITION SKY/WX   TEMP    WIND        PRES    WAVE   SWELL
                          AIR SEA DIR/SP/G            HT/PER HT/PER
                          (F)     (DEG/KT/KT) (MB)    (FT/S) (FT/S)
30.1N   87.6W              81 82  140/ 17/ 19 1016.3F   2/ 4
29.2N   88.2W              80 81  140/ 16/ 17 1016.6F   2/ 4
28.8N   86.0W              82 82  130/ 10/ 12 1017.6    2/ 4   2/ 8
PANAMA CITY BEAC              84  100/  7/  9 1018.1F
TOWER C                    81     140/ 14/ 15 1018.1F
28.5N   84.5W              83 85  100/ 10/ 10 1017.4    1/ 4

$$
FLZ011-016>038-118-127-128-134-139-239-290700-
NORTH FLORIDA

CITY           SKY/WX    TMP DP  RH WIND       PRES   REMARKS
MARIANNA       MOCLDY    75  74  96 CALM      30.07F
TALLAHASSEE    CLOUDY    76  74  93 E6        30.08F
PERRY          CLOUDY    77  73  87 E6        30.09S
LIVE OAK       CLEAR     75  75 100 CALM      30.10F
CROSS CITY     CLEAR     75  73  94 CALM      30.09S
LAKE CITY      FAIR      73  73 100 CALM      30.10S
GAINESVILLE    CLOUDY    74  72  93 CALM      30.09F
WILLISTON      CLEAR     77  75  94 MISG      30.09S
PALATKA        FAIR      75  75 100 CALM      30.09F
MAYPORT NAS    PTCLDY    80  75  84 SE8       30.10F
JACKSONVILLE   CLOUDY    75  73  93 NE3       30.10S
JAX NAS        PTCLDY    80  74  81 E7        30.10F
JAX CECIL      CLEAR     73  73 100 CALM      30.10S
FERNANDINA BEA FAIR      81  77  89 E5        30.09F
ST AUGUSTINE   PTCLDY    79  75  87 SE6       30.10F
PALM COAST     FAIR      76  76 100 CALM      30.09F

STATION/POSITION SKY/WX   TEMP    WIND        PRES    WAVE   SWELL
                          AIR SEA DIR/SP/G            HT/PER HT/PER
                          (F)     (DEG/KT/KT) (MB)    (FT/S) (FT/S)
SHELL POINT      NOT AVBL
KEATON BEACH               76      80/  9/ 11 1018.1F
CEDAR KEY                  79     110/ 11/ 13 1019.0F
FERNANDINA                    81  100/  2/  5 1020.2F
30.7N   81.3W                 81                N/A     3/ 5
MAYPORT                       80  110/  5/  8 1019.6F
31.4N   80.9W              80 82  120/ 14/ 14 1019.6F   3/ 6   2/ 8
ST AUGUSTINE               79 80  130/  5/  5 1019.1F

$$
FLZ040-043>046-052-053-057-058-063-144-290700-
INTERIOR CENTRAL FLORIDA

CITY           SKY/WX    TMP DP  RH WIND       PRES   REMARKS
OCALA          CLEAR     77  73  87 CALM      30.09F
THE VILLAGES     N/A     77  77 100 CALM      29.99S
LEESBURG       PTCLDY    79  76  90 NE5       30.09F
SANFORD        CLOUDY    77  74  90 NE5       30.08F
ORLANDO EXEC   CLOUDY    80  76  87 CALM      30.08F
ORLANDO INTL   CLOUDY    76  76 100 NE5       30.09R
KISSIMMEE      CLOUDY    78  77  96 E6        30.09S
WINTER HAVEN   CLOUDY    78  75  90 E3        30.09S
LAKELAND       PTCLDY    77  77 100 SE5       30.08S
BARTOW         FAIR      75 N/A N/A CALM      30.08F
SEBRING        FAIR      78  75  90 CALM      30.07S
OKEECHOBEE     PTCLDY    75  73  94 CALM      30.07F

$$
FLZ041-047-054-059-064-141-147-290700-
EAST CENTRAL FLORIDA

CITY           SKY/WX    TMP DP  RH WIND       PRES   REMARKS
DAYTONA BEACH  MOCLDY    80  76  87 CALM      30.08F
DELAND         PTCLDY    75  73  94 CALM      30.09F
JFK SPACE CTR  CLOUDY    78  77  95 CALM      30.07S
CAPE CANAVERAL CLOUDY    78  73  85 E3        30.06F
PATRICK AFB    CLOUDY    80  78  96 E5        30.06F
MELBOURNE      CLOUDY    82  76  81 E7        30.06F
VERO BEACH     LGT RAIN  78  75  90 CALM      30.06F
FT PIERCE      PTCLDY    76  75  97 CALM      30.06F
STUART           N/A     81  77  89 CALM      30.07F

STATION/POSITION SKY/WX   TEMP    WIND        PRES    WAVE   SWELL
                          AIR SEA DIR/SP/G            HT/PER HT/PER
                          (F)     (DEG/KT/KT) (MB)    (FT/S) (FT/S)
28.5N   80.2W              83 83  100/ 10/ 12 1019.3F   2/ 5   2/ 8
28.9N   78.5W              81 83  130/  8/ 10 1018.5F   3/ 8   2/ 8
TRIDENT PIER                  78   90/  3/  4 1019.8F
28.4N   80.5W                 81                N/A     2/ 4
27.5N   80.2W                 80                N/A     2/ 5

$$
FLZ050-056-061-142-242-148-248-149-249-151-251-155-255-
160-260-290700-
WEST CENTRAL FLORIDA

CITY           SKY/WX    TMP DP  RH WIND       PRES   REMARKS
CRYSTAL RIVER  MOCLDY    73  73 100 CALM      30.08F
INVERNESS      FAIR      73  73 100 CALM      30.09S
BROOKSVILLE    CLEAR     75  73  93 E3        30.08F
CLEARWATER AIR FAIR      77  73  88 SE5       30.06F
ST PETE CLEARW PTCLDY    79  74  84 SE3       30.06F
TAMPA INTL     PTCLDY    79  74  84 E3        30.07F
TAMPA EXEC     CLEAR     77  73  88 CALM      30.07F
PLANT CITY     PTCLDY    77  77 100 MISG      30.09F
MACDILL AFB    CLEAR     76  76 100 E6        30.06F
PETER O KNIGHT PTCLDY    81  77  89 CALM      30.07F
ST PETERSBURG  MOCLDY    82  75  79 SE12      30.05F
SARASOTA       CLEAR     74  71  91 CALM      30.05S
VENICE         FAIR      77  75  94 E7        30.06F

STATION/POSITION SKY/WX   TEMP    WIND        PRES    WAVE   SWELL
                          AIR SEA DIR/SP/G            HT/PER HT/PER
                          (F)     (DEG/KT/KT) (MB)    (FT/S) (FT/S)
27.3N   84.2W                 85                N/A     1
CLEARWATER BEACH              88  120/  7/ 11 1018.1F
MIDDLE TAMPA BAY                  100/  7/  9 1018.2F
VENICE                     77 87   50/  5/  6 1018.1F

$$
FLZ066-069-070-075>078-162-262-165-265-290700-
SOUTHWEST FLORIDA AND KEYS

CITY           SKY/WX    TMP DP  RH WIND       PRES   REMARKS
PUNTA GORDA    CLEAR     75  74  96 E5        30.08S
FT MYERS       CLEAR     76  75  97 E3        30.05F
SOUTHWEST INTL CLEAR     75  73  93 NE3       30.06F
NAPLES         CLEAR     78  75  90 E6        30.05F
MARCO ISLAND   CLEAR     77  73  88 E5        30.05F
IMMOKALEE      MOCLDY    75  75 100 CALM      30.07S
MARATHON       CLEAR     84  75  74 SE7       30.04F
KEY WEST NAS   PTCLDY    82  77  84 SE8       30.04F
KEY WEST INTL  PTCLDY    84  77  79 SE7       30.05F

STATION/POSITION SKY/WX   TEMP    WIND        PRES    WAVE   SWELL
                          AIR SEA DIR/SP/G            HT/PER HT/PER
                          (F)     (DEG/KT/KT) (MB)    (FT/S) (FT/S)
NAPLES                        87   90/  4/  6 1017.5F
DRY TORTUGAS               83     180/  6/  6 1017.3F
SAND KEY                   83     160/  8/ 10 1018.0F
MOLASSES REEF              84 84  110/  8/  9 1018.1

$$
FLZ067-068-071>074-168-172>174-290700-
SOUTHEAST FLORIDA

CITY           SKY/WX    TMP DP  RH WIND       PRES   REMARKS
W PALM BEACH   PTCLDY    82  74  76 SE6       30.06F
FT LAUDER-EXEC CLOUDY    82  74  76 CALM      30.05F
FT LAUDERDALE  CLOUDY    83  76  79 SE6       30.04F
POMPANO BEACH  CLOUDY    84  76  76 SE5       30.05F
PEMBROKE PINES CLOUDY    81  75  82 CALM      30.06F
OPA LOCKA      CLOUDY    82  78  88 E5        30.05F
MIAMI          CLOUDY    84  75  74 E7        30.05F
WEST KENDALL   MOCLDY    79  75  87 CALM      30.04F
HOMESTEAD      CLOUDY    78  78 100 CALM      30.04F

STATION/POSITION SKY/WX   TEMP    WIND        PRES    WAVE   SWELL
                          AIR SEA DIR/SP/G            HT/PER HT/PER
                          (F)     (DEG/KT/KT) (MB)    (FT/S) (FT/S)
PORT EVERGLADES            83     130/  4/  6 1017.8F
VIRGINIA KEY                  87  100/  4/  5 1017.0F
LAKE WORTH                    84  130/  7/  9 1018.9S
FOWEY ROCKS                83 84  110/  9/ 10 1018.3F
SETTLEMENT POINT           82     140/  5/  6 1017.9F

$$





USA.gov is the U.S. government's official web portal to all federal, state and local government web resources and services.